Wind_Speed
12 12 10 10 9 10 11 12 14 15 16 17 17 18 14 15 9 10 10 14 14 16 18 18 19 18 19 19 18 18 18 19 20
11 12 11 11 9 8 9 9 11 12 14 15 15 15 16 11 8 11 9 11 14 13 15 16 18 18 18 19 19 18 18 18 20
11 11 12 11 9 8 7 7 7 9 10 12 14 16 15 14 14 14 13 9 10 14 14 14 15 16 16 17 18 18 18 18 19
10 9 9 10 10 9 7 6 5 5 7 9 12 14 16 16 8 9 11 11 8 9 13 15 15 14 15 15 16 17 18 18 18
8 8 8 7 8 8 7 6 4 3 3 5 9 14 14 11 7 9 7 11 11 10 10 12 14 15 14 13 14 15 16 16 16
8 10 9 8 7 8 8 7 5 3 1 2 5 10 13 4 5 8 7 7 7 7 10 9 11 13 15 15 12 12 13 14 15
11 10 11 11 10 9 9 8 6 3 2 1 3 6 8 2 4 5 7 4 5 6 7 6 8 10 11 13 15 13 11 11 12
14 14 14 13 14 13 11 9 9 7 4 2 3 6 5 4 4 4 5 6 3 3 5 6 5 6 7 9 10 12 12 11 9
15 13 14 14 14 14 14 14 13 13 12 7 6 6 4 5 1 4 3 2 3 3 2 3 5 6 6 7 8 8 10 11 9
17 17 14 12 14 14 14 14 14 14 15 13 10 6 7 9 6 2 4 4 3 2 2 3 2 3 4 5 7 8 10 9 9
16 15 15 14 15 14 15 13 13 13 14 15 13 12 11 8 9 8 4 5 6 5 3 3 3 2 1 2 3 5 8 10 8
16 16 15 16 16 15 17 19 17 16 15 14 14 15 14 12 11 9 10 7 7 8 7 6 4 4 3 4 3 3 5 8 9
14 15 15 16 15 14 16 17 17 18 19 19 20 19 18 16 14 13 13 11 10 11 9 9 8 7 6 5 5 6 3 4 7
12 13 14 14 14 14 15 15 15 17 17 16 16 16 16 16 17 17 15 14 14 14 13 11 11 10 9 7 6 6 6 5 4
12 12 13 13 13 14 14 15 15 17 17 16 17 17 16 16 17 17 17 16 15 15 14 15 13 12 12 12 11 9 8 7 5
11 12 12 12 14 13 13 13 13 14 14 14 14 12 12 12 15 16 17 16 15 16 14 10 14 14 14 14 14 13 12 10 8
10 11 12 12 13 12 11 11 10 11 11 9 9 4 5 6 7 10 13 13 12 13 14 16 14 13 14 15 15 15 15 14 12
9 9 9 10 10 10 10 10 10 10 9 8 7 3 4 3 3 3 8 12 14 17 14 13 17 18 18 19 19 17 19 16 16
7 8 8 9 9 9 9 9 9 9 9 9 8 9 8 4 4 4 10 11 18 21 20 18 16 18 18 17 18 22 19 21 19
6 6 7 8 8 9 9 9 9 9 9 9 9 8 8 8 10 8 9 10 11 15 15 15 19 23 24 25 25 26 28 26 26
Wind_Direction
158 157 150 144 128 114 100 94 86 80 79 83 88 83 82 98 72 46 105 82 69 65 59 56 60 62 57 59 57 56 54 50 50
160 158 154 157 146 132 116 104 95 87 83 83 85 87 69 91 89 54 97 92 72 64 63 58 57 62 61 58 56 58 57 54 51
172 168 165 158 157 153 138 119 110 97 87 82 80 84 75 65 54 63 77 99 83 66 62 58 56 56 59 59 58 54 57 57 55
179 181 182 177 175 168 159 146 129 116 95 85 83 80 65 62 81 47 68 86 93 67 57 57 54 52 52 54 56 55 54 56 57
186 180 183 190 191 183 180 170 154 150 127 93 87 84 75 63 24 35 73 87 89 83 68 57 58 52 45 47 49 52 54 54 55
197 185 182 183 186 188 197 197 193 175 121 97 91 93 83 9 8 19 51 83 83 90 86 74 61 55 50 46 45 47 49 51 51
213 195 192 190 188 193 196 207 206 195 152 94 156 106 96 19 339 16 33 88 76 65 85 81 76 69 57 50 47 47 46 47 45
228 205 200 203 206 195 196 201 203 165 227 167 152 137 146 105 310 355 13 37 45 63 65 59 70 76 72 55 49 52 53 51 44
228 224 217 208 212 215 205 202 191 199 193 199 232 213 192 172 242 304 322 343 29 35 12 40 51 51 52 50 44 48 50 56 58
226 225 224 223 225 219 218 220 214 209 214 214 210 219 236 206 199 260 300 285 296 351 24 343 12 54 64 62 51 43 40 47 55
222 225 224 233 234 229 233 227 225 229 226 223 226 241 252 249 228 231 261 271 261 267 286 331 352 355 43 54 48 45 35 37 37
225 229 232 236 236 229 235 241 240 235 230 231 241 246 253 258 258 245 246 266 271 253 255 268 291 319 325 296 297 352 19 26 27
228 231 232 232 230 230 235 235 234 238 244 242 247 250 250 257 260 259 255 249 257 260 252 256 268 284 297 316 303 276 307 5 19
233 234 234 233 237 233 233 236 238 242 243 246 251 255 253 253 256 258 257 251 244 249 261 255 254 266 277 283 297 307 280 285 345
226 230 232 229 235 237 235 238 242 247 253 256 259 260 261 258 257 254 254 254 254 257 254 257 259 259 263 272 277 283 295 279 291
224 228 230 225 229 234 237 236 240 249 258 263 266 269 264 260 257 252 248 249 248 251 248 252 259 262 261 263 265 267 272 283 267
220 222 227 231 232 231 234 239 242 248 252 261 271 261 255 245 256 256 244 242 241 250 246 242 243 246 250 255 260 255 259 264 270
225 230 232 234 236 239 240 241 242 244 248 248 230 204 192 190 255 239 215 216 214 223 225 237 235 238 244 250 256 262 257 257 260
230 235 238 238 235 234 236 238 242 242 244 241 235 230 229 207 174 204 228 225 229 235 227 233 239 235 236 242 253 256 259 261 257
229 228 236 237 238 236 238 240 239 241 245 247 240 236 237 244 236 218 235 238 240 246 247 252 250 247 248 251 254 256 256 256 261
Height
1538 1540 1543 1544 1546 1547 1548 1548 1549 1549 1550 1550 1551 1552 1552 1552 1551 1551 1552 1551 1551 1551 1551 1550 1548 1547 1546 1545 1545 1544 1543 1542 1541
1539 1540 1543 1545 1546 1548 1549 1550 1551 1551 1552 1553 1553 1553 1553 1553 1553 1553 1553 1554 1554 1553 1552 1552 1552 1550 1549 1548 1547 1546 1545 1545 1544
1539 1541 1543 1545 1547 1549 1550 1551 1553 1553 1554 1555 1555 1555 1555 1555 1554 1555 1554 1555 1556 1556 1556 1555 1555 1554 1553 1552 1551 1550 1548 1547 1547
1539 1541 1543 1545 1547 1549 1551 1552 1553 1555 1556 1557 1557 1557 1557 1558 1557 1557 1557 1556 1557 1557 1558 1558 1557 1557 1556 1554 1553 1552 1551 1550 1550
1539 1541 1543 1545 1547 1549 1551 1553 1554 1555 1556 1558 1559 1560 1560 1560 1559 1558 1558 1558 1557 1557 1558 1559 1559 1559 1558 1557 1556 1555 1554 1553 1553
1539 1541 1542 1545 1547 1548 1551 1552 1554 1556 1557 1558 1560 1561 1561 1563 1561 1560 1560 1560 1559 1558 1559 1560 1561 1561 1561 1560 1559 1558 1557 1556 1555
1538 1540 1541 1543 1545 1547 1549 1551 1554 1556 1556 1558 1559 1560 1561 1562 1562 1561 1561 1561 1561 1560 1560 1561 1561 1561 1562 1562 1561 1560 1559 1558 1558
1536 1537 1539 1542 1544 1545 1548 1550 1552 1555 1556 1558 1560 1560 1561 1562 1562 1562 1562 1563 1562 1562 1561 1561 1561 1561 1561 1563 1562 1561 1560 1559 1559
1534 1537 1538 1540 1542 1545 1546 1547 1549 1552 1554 1557 1558 1559 1560 1562 1562 1562 1562 1562 1562 1563 1564 1563 1562 1562 1563 1563 1564 1562 1561 1559 1559
1532 1535 1536 1538 1541 1544 1545 1546 1547 1549 1552 1554 1555 1557 1557 1560 1561 1560 1562 1563 1563 1563 1563 1565 1563 1562 1562 1563 1564 1565 1563 1561 1560
1530 1532 1533 1535 1538 1540 1543 1545 1546 1548 1550 1551 1553 1556 1555 1556 1559 1560 1560 1561 1562 1562 1563 1564 1565 1564 1564 1563 1564 1564 1565 1562 1562
1527 1529 1531 1534 1535 1536 1539 1542 1544 1545 1547 1549 1551 1551 1555 1555 1555 1557 1558 1560 1560 1561 1561 1562 1563 1564 1564 1564 1563 1564 1564 1564 1563
1524 1527 1529 1532 1533 1533 1536 1538 1541 1541 1543 1545 1547 1549 1550 1553 1554 1555 1555 1557 1558 1559 1561 1561 1562 1563 1564 1563 1563 1564 1564 1564 1563
1523 1526 1526 1527 1530 1531 1533 1536 1538 1539 1540 1540 1543 1545 1546 1548 1551 1552 1553 1554 1555 1556 1558 1560 1560 1561 1563 1563 1562 1562 1563 1564 1563
1520 1524 1524 1524 1527 1529 1531 1533 1534 1536 1537 1537 1539 1540 1541 1543 1546 1547 1549 1550 1552 1552 1554 1556 1558 1559 1560 1561 1562 1562 1562 1563 1562
1517 1519 1522 1522 1523 1525 1528 1528 1530 1531 1533 1533 1534 1536 1537 1539 1541 1543 1544 1547 1548 1549 1550 1552 1553 1556 1557 1559 1559 1560 1561 1561 1561
1515 1518 1519 1519 1521 1522 1524 1525 1526 1528 1529 1530 1532 1533 1535 1534 1536 1539 1540 1543 1545 1545 1546 1548 1550 1552 1552 1554 1556 1557 1558 1559 1559
1513 1515 1517 1518 1517 1519 1520 1520 1523 1523 1526 1528 1529 1530 1530 1532 1534 1536 1537 1539 1540 1540 1543 1544 1546 1548 1549 1550 1552 1553 1554 1556 1557
1510 1512 1514 1516 1516 1516 1517 1520 1520 1521 1523 1524 1526 1528 1529 1529 1531 1534 1534 1537 1538 1538 1539 1538 1543 1543 1545 1546 1547 1548 1550 1551 1553
1508 1509 1512 1513 1514 1515 1515 1517 1518 1519 1520 1523 1524 1525 1527 1527 1528 1529 1530 1532 1534 1534 1535 1536 1539 1539 1540 1540 1541 1542 1544 1546 1547